Location: Lugrin
(46.4033°N, 6.6674°E)
Time: 06:26:00
(UTC+00:00)

SPOT 5 - Pass Details

Date: 18 September 2020
Orbit: 623 x 814 km, 98.3° (Epoch: 23 October)

Event Time Altitude Azimuth Distance (km) Brightness Sun altitude
Exits shadow 20:40:08 34° 23° (NNE) 1,294 4.2 -29.7°
Drops below altitude 10° 20:43:27 10° 358° (N) 2,387 6.0 -30.2°
Sets 20:45:55 0° 352° (N) 3,336 7.0 -30.5°
